Back to catalog

COSMOS 529

AliveMilitaryLEO
NORAD 6264·PAYLOAD·🇷🇺 Russia

Launched Nov 1, 1972 from Plesetsk Cosmodrome

Loading…

Next Passes (next 24 hours)

TLE

FreshSource: Space-Track

Epoch: Sep 14, 2026, 09:08 UTC

1 06264U 72087B   26257.38118138 -.00000031  00000-0 -88365-4 0  9997
2 06264  74.0319 237.1470 0042169 359.9016 153.8161 12.57216019472207

Track COSMOS 529 in real time with AllMySat

Download on the App Store